FW1153 Weather Reports


time (UTC)temp
F
wind
direction
speed
knots
gust
knots
rain 1hr
in
rain 24hr
in
rain mn
in
humidity
%
barometer
mb
20260906224513 92 223 2.6 7.8 0.00 0.00 0.00 17 1003.7
20260906223003 92 223 4.3 8.7 0.00 0.00 0.00 17 1003.9
20260906221601 91 222 2.6 7.8 0.00 0.00 0.00 20 1004.2
20260906221500 91 222 1.7 7.8 0.00 0.00 0.00 19 1004.2
20260906220059 91 211 3.5 6.1 0.00 0.00 0.00 20 1004.5
20260906214557 91 211 2.6 7.8 0.00 0.00 0.00 23 1004.8
20260906213059 91 188 3.5 7.0 0.00 0.00 0.00 20 1004.9
20260906211558 91 178 4.3 8.7 0.00 0.00 0.00 22 1005.0
20260906210053 89 105 1.7 5.2 0.00 0.00 0.00 26 1005.3
20260906204601 89 84 3.5 6.1 0.00 0.00 0.00 26 1005.6
20260906203042 87 86 0.0 4.3 0.00 0.00 0.00 29 1006.0
20260906201554 86 86 2.6 7.0 0.00 0.00 0.00 29 1006.3
20260906200036 85 89 1.7 3.5 0.00 0.00 0.00 34 1006.5
20260906194531 84 96 0.9 7.0 0.00 0.00 0.00 35 1006.8
20260906193027 83 96 0.0 8.7 0.00 0.00 0.00 35 1007.1
20260906191523 82 174 0.9 7.8 0.00 0.00 0.00 36 1007.5
20260906190019 80 310 1.7 4.3 0.00 0.00 0.00 38 1007.8
20260906184516 80 309 3.5 7.0 0.00 0.00 0.00 39 1008.4
20260906183013 79 272 1.7 3.5 0.00 0.00 0.00 40 1008.7
20260906181510 78 278 1.7 6.1 0.00 0.00 0.00 39 1009.2
20260906180005 77 279 1.7 5.2 0.00 0.00 0.00 42 1009.6
20260906174607 76 279 2.6 6.1 0.00 0.00 0.00 44 1009.9
20260906174501 76 279 3.5 6.1 0.00 0.00 0.00 44 1009.9
20260906173057 75 325 2.6 4.3 0.00 0.00 0.00 47 1010.2
20260906171554 74 325 1.7 4.3 0.00 0.00 0.00 48 1010.5
20260906170053 73 324 1.7 5.2 0.00 0.00 0.00 49 1010.7
20260906164550 72 325 1.7 5.2 0.00 0.00 0.00 50 1010.9
20260906163045 71 325 2.6 5.2 0.00 0.00 0.00 51 1011.2
20260906161546 70 325 1.7 5.2 0.00 0.00 0.00 51 1011.3
20260906160039 69 325 1.7 4.3 0.00 0.00 0.00 51 1011.5
20260906154543 67 325 2.6 3.5 0.00 0.00 0.00 53 1011.5
20260906153034 65 325 1.7 4.3 0.00 0.00 0.00 55 1011.5
20260906151526 63 326 2.6 4.3 0.00 0.00 0.00 56 1011.8
20260906150023 61 326 2.6 5.2 0.00 0.00 0.00 59 1011.9
20260906144523 59 327 2.6 5.2 0.00 0.00 0.00 61 1012.2
20260906143022 58 330 3.5 7.0 0.00 0.00 0.00 63 1012.4
20260906141522 56 5 2.6 4.3 0.00 0.00 0.00 64 1012.4
20260906140032 55 5 2.6 4.3 0.00 0.00 0.00 67 1012.6
20260906134519 53 5 0.9 2.6 0.00 0.00 0.00 70 1012.3
20260906133024 52 5 0.0 0.0 0.00 0.00 0.00 71 1012.2
20260906131517 52 5 0.9 2.6 0.00 0.00 0.00 71 1012.3
20260906130026 51 5 0.0 0.0 0.00 0.00 0.00 73 1012.3
20260906124514 51 5 0.9 2.6 0.00 0.00 0.00 73 1012.1
20260906123027 51 5 0.0 1.7 0.00 0.00 0.00 73 1012.0
20260906121512 51 5 1.7 3.5 0.00 0.00 0.00 72 1012.1
20260906120011 52 5 2.6 4.3 0.00 0.00 0.00 71 1012.0
20260906114511 53 5 1.7 3.5 0.00 0.00 0.00 71 1011.9
20260906113014 52 5 2.6 3.5 0.00 0.00 0.00 74 1011.9
20260906111506 51 5 0.9 2.6 0.00 0.00 0.00 74 1011.7
20260906110004 52 5 0.9 1.7 0.00 0.00 0.00 67 1011.7
20260906104600 53 5 0.0 0.0 0.00 0.00 0.00 74 1011.7
20260906103101 53 5 0.9 1.7 0.00 0.00 0.00 73 1011.5
20260906101557 53 5 0.0 0.0 0.00 0.00 0.00 73 1011.6
20260906100100 53 5 0.0 1.7 0.00 0.00 0.00 71 1011.3
20260906094553 53 5 0.0 1.7 0.00 0.00 0.00 71 1011.4
20260906093050 54 5 0.0 0.0 0.00 0.00 0.00 71 1011.2
20260906091548 54 5 0.0 0.0 0.00 0.00 0.00 71 1011.3
20260906090046 55 5 0.0 1.7 0.00 0.00 0.00 69 1011.2
20260906084543 56 5 0.0 0.0 0.00 0.00 0.00 68 1010.9
20260906083041 56 5 0.9 1.7 0.00 0.00 0.00 68 1010.8
20260906081539 56 5 0.0 0.0 0.00 0.00 0.00 68 1010.7
20260906080038 57 5 0.9 1.7 0.00 0.00 0.00 67 1010.8
20260906074538 57 5 0.0 1.7 0.00 0.00 0.00 66 1010.7
20260906073032 58 5 1.7 3.5 0.00 0.00 0.00 65 1010.7
20260906071531 58 5 1.7 3.5 0.00 0.00 0.00 65 1010.6
20260906070029 58 5 0.0 0.0 0.00 0.00 0.00 66 1010.5
20260906064526 59 5 0.0 1.7 0.00 0.00 0.00 65 1010.4
20260906063030 60 5 1.7 3.5 0.00 0.00 0.00 63 1010.3
20260906061521 61 5 0.9 1.7 0.00 0.00 0.00 63 1010.2
20260906060020 62 5 0.0 1.7 0.00 0.00 0.00 60 1010.2
20260906054513 63 5 2.6 3.5 0.00 0.00 0.00 59 1010.2
20260906053011 64 5 0.9 2.6 0.00 0.00 0.00 54 1010.0
20260906051508 64 5 0.0 1.7 0.00 0.00 0.00 51 1009.9
20260906050005 65 5 0.0 0.0 0.00 0.00 0.00 51 1009.9
20260906044603 67 5 0.9 2.6 0.00 0.00 0.00 49 1009.8
20260906043056 70 5 0.0 2.6 0.00 0.00 0.00 44 1009.7
20260906041553 71 5 1.7 5.2 0.00 0.00 0.00 41 1009.6
20260906040051 73 5 3.5 9.6 0.00 0.00 0.00 38 1009.8
20260906034550 73 346 4.3 7.0 0.00 0.00 0.00 39 1009.4
20260906033044 75 348 3.5 7.8 0.00 0.00 0.00 38 1008.9
20260906031603 75 360 3.5 7.8 0.00 0.00 0.00 37 1008.7
20260906030038 76 360 2.6 3.5 0.00 0.00 0.00 1008.7